Theta_e
349 349 349 349 348 349 349 349 349 349 348 348 348 347 347 347 347 347 347 346 347 346 346 345 344 344 343 342 339 336 333 331 330 330 331 332 333 333 334 337 341 344 347 346 343 341 341 340 340 340 340 341 341 342 343 343 344 344 345 345 344 344 343
344 346 347 348 348 348 348 348 348 348 348 348 348 348 347 348 347 347 347 347 347 347 346 346 345 344 344 343 341 337 335 333 332 331 330 330 331 332 333 333 336 340 344 346 344 343 343 342 340 339 339 340 341 341 341 341 342 343 344 344 344 344 343
339 341 344 346 348 348 347 347 347 347 348 348 348 348 348 348 348 348 348 347 347 347 347 346 346 345 344 344 343 340 337 336 336 334 331 330 330 331 332 332 333 336 339 344 344 343 343 343 342 340 338 339 341 341 341 341 341 341 343 343 344 344 345
337 339 341 344 348 349 348 347 346 347 347 347 348 348 348 348 348 348 348 347 347 347 347 346 346 345 345 344 344 343 340 337 337 336 334 332 330 330 330 331 332 333 336 339 342 343 343 343 344 342 340 339 340 341 341 341 341 341 341 342 343 345 346
337 338 340 343 346 348 349 348 347 346 346 346 347 347 347 348 348 348 347 348 347 347 347 346 346 346 345 345 345 344 342 339 336 337 337 335 333 331 329 329 330 330 332 335 338 340 342 343 344 344 342 342 342 342 342 342 342 341 341 341 342 344 346
336 337 338 341 344 346 349 349 348 347 346 346 346 346 347 347 347 347 347 347 347 347 347 347 346 346 345 345 345 345 345 342 338 336 337 337 336 334 330 328 328 328 329 331 333 336 338 340 342 343 343 343 343 343 343 343 343 342 342 342 342 342 343
335 336 336 339 342 344 347 349 349 348 347 347 346 346 346 346 346 347 347 347 347 347 347 347 347 346 345 345 345 345 345 345 342 339 337 337 337 336 333 330 328 327 327 328 330 331 333 336 340 342 342 343 343 343 343 343 344 344 344 343 342 342 342
333 334 335 337 340 343 345 348 349 349 348 348 347 347 346 346 346 346 346 347 346 347 347 347 346 346 346 345 345 345 345 345 345 343 339 338 336 336 335 333 331 328 327 326 327 329 330 332 336 339 341 342 342 342 342 341 341 342 342 342 342 342 342
331 332 334 336 339 341 344 346 348 348 348 348 348 347 347 346 346 346 345 346 346 346 346 346 346 346 346 346 345 345 345 345 345 345 343 340 339 337 336 336 334 331 329 327 327 327 328 329 331 335 338 341 341 341 340 338 337 336 335 336 336 337 338
329 330 332 335 338 340 342 344 346 347 347 347 348 347 347 346 346 346 345 345 346 346 346 346 346 346 346 346 345 345 345 345 346 345 345 343 341 341 339 337 336 334 332 330 328 327 327 328 329 331 334 338 340 339 337 334 333 331 330 330 330 331 332
328 327 328 331 335 338 340 342 344 345 345 345 346 347 347 347 346 346 345 345 346 345 346 346 345 346 346 345 345 345 345 346 346 346 345 345 344 343 342 341 339 336 334 332 331 329 327 327 327 328 330 333 334 333 331 330 330 329 328 328 328 329 329
327 326 326 327 329 332 335 338 341 343 344 344 345 346 346 347 347 346 345 346 346 346 346 346 345 345 345 345 345 345 345 346 346 346 346 345 345 344 344 343 342 340 337 335 333 331 329 328 327 327 327 328 328 328 327 327 327 327 327 327 327 327 328
326 326 325 325 326 328 331 333 336 339 342 343 344 345 345 346 346 346 346 345 345 345 346 346 346 345 345 345 345 345 346 346 346 346 346 346 346 345 345 345 344 343 342 340 338 335 332 329 328 327 327 326 326 326 326 326 326 326 326 326 326 326 326
325 325 324 324 325 326 327 329 332 335 338 340 342 344 345 345 346 346 346 346 345 345 345 346 346 346 346 345 345 345 346 346 346 346 346 346 346 345 345 345 345 345 344 344 343 341 337 333 329 327 327 327 326 326 326 326 326 326 326 325 325 325 325
324 324 324 325 325 324 324 326 328 330 332 335 338 342 344 345 346 346 345 345 346 345 345 345 346 346 347 346 346 346 346 346 346 346 346 346 346 346 346 346 346 346 346 345 345 344 343 340 336 332 329 327 327 326 326 326 326 326 325 325 325 325 325
324 323 324 324 324 324 324 323 325 326 328 330 333 336 340 343 345 347 347 346 345 345 346 346 345 346 346 346 347 346 346 346 346 346 346 346 346 346 346 346 346 346 346 346 346 346 346 345 344 340 335 330 328 327 327 326 326 326 325 325 325 325 325
323 323 322 322 322 323 324 323 323 324 325 327 329 331 334 337 342 345 347 347 347 345 346 346 346 346 345 346 347 347 346 346 346 346 346 346 346 347 346 347 347 347 347 347 347 347 347 347 347 347 344 339 333 328 327 327 326 326 326 325 325 325 326
323 323 322 321 320 321 323 324 324 324 324 325 327 328 329 332 336 342 346 348 348 347 346 346 345 346 345 346 346 346 346 347 346 346 346 346 347 347 347 347 347 347 347 347 347 347 348 348 349 349 349 347 342 335 329 326 325 326 325 325 325 325 325
323 323 322 321 319 319 321 322 324 325 325 325 325 327 327 329 331 335 341 346 349 349 348 347 346 346 346 345 345 346 347 346 347 347 347 347 347 347 347 347 347 347 347 348 348 347 348 349 349 350 351 351 349 344 336 329 324 324 324 324 324 325 325
323 323 322 321 319 319 319 320 321 323 325 325 324 325 326 327 328 330 336 342 347 349 350 349 348 348 347 347 346 346 346 347 347 347 347 347 347 347 347 347 348 348 347 348 348 348 348 349 350 351 351 352 352 351 347 339 329 325 324 324 323 324 324
323 323 322 321 320 319 319 319 319 321 323 324 324 324 324 326 328 329 331 336 342 347 350 351 351 350 349 349 348 347 347 347 348 348 348 348 348 348 348 348 348 348 348 348 348 349 349 350 350 351 352 353 353 353 353 349 340 333 330 326 325 325 325
323 323 322 321 320 319 319 319 319 319 322 324 324 324 324 325 327 328 329 331 335 340 346 349 351 352 351 351 350 350 350 348 348 348 348 348 348 348 348 349 349 349 349 349 349 349 350 351 351 352 353 354 354 354 355 354 351 346 341 335 332 332 333
320 322 322 322 321 320 319 319 319 319 320 322 323 323 323 325 325 325 327 329 331 333 338 343 348 351 352 352 352 351 352 352 350 349 349 349 349 349 349 350 350 350 350 350 350 350 351 352 353 354 355 355 355 356 356 355 354 353 349 346 344 344 342
318 319 320 321 321 321 319 319 319 319 319 320 322 322 323 325 326 325 326 328 330 330 332 336 341 346 349 352 353 352 352 353 353 352 351 350 350 350 350 351 351 351 352 352 352 352 353 354 354 355 356 356 356 357 357 357 357 356 354 353 352 352 350
315 317 318 319 320 321 320 319 319 319 318 319 321 323 324 325 325 325 326 328 331 332 331 331 334 338 343 348 352 353 353 353 354 355 354 352 351 351 352 352 352 353 353 353 354 354 355 355 356 356 357 357 357 358 358 359 359 358 358 357 356 355 354
312 313 316 318 319 319 319 318 319 319 318 319 320 321 324 325 324 324 324 326 329 331 332 332 332 333 336 341 347 351 354 354 354 356 356 354 353 353 353 353 354 354 355 356 356 356 357 357 357 358 358 358 359 359 359 360 360 360 360 359 358 357 355
311 311 312 315 317 319 318 318 318 319 318 318 319 320 322 323 323 323 323 324 326 328 331 332 333 333 333 336 341 346 352 354 355 356 357 357 356 355 355 355 355 356 357 357 357 358 359 359 359 359 359 359 360 360 360 360 361 361 361 361 360 359 357
310 311 311 312 314 316 318 318 318 318 318 318 318 319 320 321 322 323 324 323 322 325 328 331 333 333 333 334 337 341 346 351 354 356 357 358 357 357 357 356 357 357 357 358 359 359 360 360 360 360 360 360 360 360 360 361 361 361 362 362 362 361 360
310 310 311 311 311 313 316 318 318 318 318 318 318 318 318 319 320 322 324 323 321 322 326 328 330 333 333 332 333 336 340 345 349 353 357 358 358 358 359 358 359 359 359 359 360 360 359 360 360 360 360 359 359 359 359 360 361 362 362 362 362 362 361
311 310 310 310 310 310 313 316 318 318 318 318 318 318 318 318 319 320 322 323 322 321 323 326 328 331 332 331 330 331 334 338 342 346 351 353 355 357 359 360 361 361 361 360 361 361 360 359 360 360 360 359 359 359 359 360 360 361 361 362 362 362 362
312 311 311 311 311 310 310 313 316 318 318 318 318 318 318 318 318 319 320 321 323 322 322 324 327 330 332 332 330 328 329 332 336 340 343 345 348 353 358 360 360 362 361 361 362 362 361 359 360 361 361 360 360 360 360 360 360 360 361 361 362 362 362
313 312 312 311 311 311 310 312 315 317 317 317 318 318 318 317 317 318 318 319 321 323 323 323 324 328 331 333 332 330 328 327 329 333 339 342 344 348 354 356 358 360 361 361 362 363 361 360 360 361 361 361 361 361 360 361 361 360 360 361 361 362 362
313 314 313 312 312 312 311 311 314 316 317 317 318 318 319 318 317 317 318 318 319 321 323 323 323 325 328 331 332 332 330 327 326 328 333 339 342 345 348 352 355 359 361 361 362 363 363 362 362 362 362 362 361 361 361 361 361 359 360 361 361 362 362
313 314 314 313 312 313 312 312 313 316 317 317 318 318 318 318 318 317 318 318 318 319 322 323 323 323 324 328 331 332 332 330 329 328 330 335 340 343 346 349 352 356 359 360 361 362 363 363 363 363 362 361 361 361 361 360 358 356 357 359 359 360 360
312 312 313 313 312 313 313 312 313 315 317 317 318 318 318 318 318 317 317 318 318 318 319 322 324 323 324 326 329 331 332 333 333 332 331 331 335 340 344 348 351 354 356 358 359 361 361 362 363 363 362 362 361 361 359 357 355 353 353 355 356 357 358
311 312 312 312 312 312 313 313 312 314 317 318 317 318 318 318 318 318 317 317 318 318 318 320 322 324 325 327 329 330 331 333 334 334 333 331 331 335 340 344 348 351 354 354 355 358 360 361 362 362 362 363 363 361 358 356 355 355 355 356 357 357 358
311 311 312 312 313 313 314 315 314 313 316 318 318 318 318 318 318 318 317 317 318 318 318 319 321 322 324 326 328 329 331 333 334 335 335 334 333 334 336 339 343 348 352 352 351 353 356 358 359 359 360 361 361 360 358 356 356 358 358 358 358 359 359
311 312 312 313 313 314 315 316 315 314 315 318 318 318 318 318 318 318 318 317 318 318 318 318 319 321 322 324 326 329 330 332 333 334 335 335 335 335 336 337 339 343 348 350 351 352 352 353 353 354 355 356 356 357 357 356 357 358 359 360 360 360 360
Wind_Speed
12 17 20 25 31 32 30 34 37 38 40 40 38 38 38 37 37 36 34 33 31 30 29 28 28 28 27 26 26 26 27 27 25 24 22 20 19 18 18 18 18 17 17 17 16 14 11 11 11 11 10 9 8 9 9 8 8 8 8 9 9 9 9
12 7 8 16 25 32 35 37 38 38 39 40 40 39 39 39 38 37 36 34 33 31 30 29 29 29 29 27 26 25 26 26 25 25 23 21 19 19 19 19 18 18 17 17 17 15 12 11 11 11 11 10 9 9 10 10 10 9 9 9 9 9 9
22 17 11 7 14 28 37 38 37 38 39 40 41 41 41 41 39 38 37 35 34 33 32 31 30 29 29 29 27 26 26 26 25 25 24 22 20 19 19 19 19 19 18 18 18 17 15 12 12 12 11 11 10 10 10 11 10 10 10 10 10 10 9
25 23 15 8 7 18 30 36 36 36 37 38 40 41 41 41 39 38 37 36 34 34 33 32 31 30 30 30 29 27 27 27 26 25 24 23 22 20 20 19 19 20 20 19 19 19 18 15 13 13 12 12 11 11 11 11 11 10 10 11 11 11 10
26 27 21 11 5 9 18 29 35 35 34 35 37 38 39 40 40 39 39 37 35 34 32 31 30 31 31 31 30 29 27 27 26 26 25 23 22 21 21 21 20 20 20 20 20 20 20 18 16 14 14 13 12 11 12 12 11 11 11 11 11 11 11
25 27 26 19 9 6 9 18 27 32 33 33 34 36 36 37 40 41 40 39 37 36 34 33 32 32 31 31 31 30 29 27 27 26 26 24 23 22 22 22 21 21 20 20 21 21 21 20 19 17 16 14 13 12 12 12 12 12 11 11 11 11 11
24 26 27 26 18 8 4 9 17 24 30 32 33 34 34 36 38 40 41 41 39 37 36 35 35 33 32 32 32 31 30 28 27 26 26 25 24 24 23 23 23 22 21 21 20 21 21 21 21 20 18 17 16 14 13 13 12 12 12 12 11 11 11
24 28 29 29 27 19 9 1 8 15 24 30 33 35 34 34 37 39 41 41 40 39 38 36 35 35 33 33 33 32 31 30 29 28 27 26 26 26 24 24 24 23 23 22 21 21 21 21 21 21 20 20 18 17 15 14 13 13 13 12 11 11 11
26 33 35 34 33 29 20 10 8 12 15 21 28 33 34 34 35 38 40 40 40 40 39 37 36 35 33 33 32 32 31 31 31 29 28 28 28 27 26 25 24 24 24 23 23 22 21 21 21 21 21 21 21 19 17 16 15 14 13 13 12 12 12
27 36 40 39 38 36 30 20 11 9 8 9 14 22 28 33 36 37 37 39 40 40 39 37 37 36 34 34 33 32 33 33 32 31 31 30 29 28 28 27 26 25 25 24 24 24 23 22 22 22 22 22 22 21 19 18 16 15 14 13 13 13 12
26 36 42 41 40 39 36 30 21 12 6 2 5 11 16 24 31 35 37 37 38 39 38 38 38 37 36 35 34 34 34 34 33 33 32 31 30 29 28 28 28 26 25 25 25 25 25 24 23 23 24 24 24 22 21 20 18 17 15 14 13 13 13
25 33 40 41 41 40 38 35 31 24 16 11 6 3 10 15 20 26 32 36 37 37 35 36 38 39 37 36 36 36 35 35 34 34 33 32 31 30 29 29 29 28 27 26 26 26 26 26 26 25 25 25 25 24 23 22 20 19 17 16 15 14 14
23 29 37 39 38 39 39 37 34 30 25 20 15 8 2 9 14 17 22 28 34 36 35 33 35 37 38 38 38 37 36 35 34 34 33 32 31 30 30 29 29 29 28 28 27 27 27 28 28 28 27 27 27 26 25 24 23 22 20 19 18 17 16
24 29 35 37 36 36 38 38 36 32 29 26 21 15 9 1 8 14 17 20 25 30 34 35 33 33 36 38 39 39 37 35 34 34 33 33 32 31 30 30 30 29 29 29 29 28 28 28 29 29 29 29 29 28 28 27 26 25 23 22 21 20 19
24 26 30 34 34 34 35 36 36 34 31 29 25 21 16 9 1 7 14 18 20 23 27 33 36 34 33 35 38 39 38 36 35 35 34 34 33 32 31 31 31 30 29 29 28 29 29 29 29 30 31 31 31 31 30 30 29 28 26 25 24 23 22
23 24 26 30 33 32 31 32 34 35 33 30 27 25 22 18 11 4 5 13 19 21 21 26 33 35 34 35 37 37 36 37 37 36 36 35 33 32 32 32 31 31 30 29 29 29 29 29 29 30 31 32 33 33 34 34 33 31 29 28 26 25 25
22 23 24 27 29 30 30 30 30 32 34 33 30 27 25 23 19 13 6 6 13 19 21 24 28 32 36 37 36 35 35 36 37 37 37 35 34 33 33 32 32 31 30 29 29 29 28 27 28 29 30 32 34 35 36 36 35 33 31 30 29 28 27
20 22 24 27 28 27 27 28 28 28 30 31 31 29 27 24 22 18 13 6 7 13 19 24 26 29 34 37 36 34 35 36 37 38 37 36 35 34 34 33 33 32 31 30 29 29 28 28 27 28 28 30 33 35 37 38 37 35 34 32 31 30 29
18 19 21 25 27 27 26 25 25 25 25 26 28 29 28 25 22 20 17 12 6 8 14 20 25 27 31 35 36 35 35 36 36 37 37 36 36 35 34 34 34 33 31 31 30 30 29 28 28 28 28 28 31 34 36 38 38 36 36 35 34 32 32
17 18 20 23 26 28 27 25 23 22 22 23 23 24 26 25 23 21 18 14 10 7 9 14 20 24 26 30 34 35 35 35 35 37 37 36 36 35 35 34 34 33 32 32 32 31 30 29 29 29 29 29 30 31 34 36 38 37 36 35 35 34 33
17 18 19 22 25 27 27 26 24 22 21 21 21 22 23 24 23 22 19 16 13 9 7 9 14 18 21 25 29 31 33 34 34 35 35 36 36 35 35 34 33 33 33 33 32 31 29 29 30 30 30 29 30 30 32 35 37 37 37 36 36 35 35
16 17 18 20 23 26 26 26 25 23 21 20 20 20 22 23 22 22 21 18 15 12 9 7 8 12 18 22 23 24 27 32 35 35 35 35 36 36 35 34 33 32 32 32 33 32 30 29 30 31 30 30 31 31 32 34 34 35 36 37 36 35 35
15 16 17 17 19 22 25 25 24 22 21 19 19 18 19 21 22 21 21 20 18 16 13 9 6 7 13 19 23 24 24 26 31 36 37 36 36 36 35 34 33 31 31 32 32 33 32 30 30 30 30 30 31 32 33 34 34 33 34 34 34 34 34
16 17 17 18 18 19 21 24 23 22 21 20 19 19 17 18 20 21 20 20 20 19 17 14 11 8 8 15 21 26 27 26 26 30 36 38 37 36 35 34 33 31 31 31 31 31 31 30 29 30 30 30 31 32 32 32 32 32 33 33 32 32 33
19 18 17 17 18 18 19 21 22 22 21 20 20 19 17 16 18 20 21 21 20 19 19 16 14 13 10 10 15 22 28 29 26 25 31 36 38 37 36 34 32 31 30 29 29 30 30 30 31 31 30 31 31 31 31 31 31 30 30 30 30 31 32
22 21 19 18 18 18 19 20 20 21 22 21 20 19 18 16 16 18 20 21 20 19 19 18 16 15 14 11 11 16 23 29 29 26 27 33 36 36 36 34 32 30 30 29 28 28 28 29 31 32 32 31 31 31 32 31 31 30 28 27 28 29 30
22 22 20 19 18 19 20 21 20 20 21 22 21 20 18 17 16 16 17 19 21 21 20 19 18 17 14 13 13 13 17 24 28 26 25 28 33 35 36 35 34 31 30 30 29 29 29 30 31 32 31 31 31 32 33 32 31 30 28 27 26 27 28
24 24 22 20 19 19 20 21 21 20 20 20 21 21 20 18 16 15 14 16 20 22 21 19 18 18 16 14 15 14 13 16 22 25 25 25 29 34 36 35 34 33 31 30 31 31 31 31 32 33 32 32 32 32 32 32 31 30 29 28 27 27 28
24 25 25 24 22 20 19 21 22 22 20 19 20 21 21 20 18 16 14 14 17 20 22 21 19 18 16 15 15 14 13 13 16 21 25 23 24 30 34 34 32 32 32 32 33 33 34 34 34 34 34 32 33 33 33 32 30 29 29 29 28 28 28
24 25 26 26 24 21 19 20 22 23 22 20 19 20 21 21 20 18 16 14 15 17 19 21 20 19 17 16 16 15 14 14 14 17 22 24 22 24 29 30 30 30 30 31 30 30 33 35 32 32 32 31 29 29 30 32 31 29 28 28 27 27 28
23 24 25 27 26 23 20 20 21 23 24 22 19 19 21 22 22 21 19 15 14 15 17 18 20 20 18 17 17 16 15 15 15 15 17 20 21 22 27 28 28 28 28 28 26 26 30 32 29 27 28 27 26 26 25 27 31 31 28 27 27 26 26
21 22 24 26 27 25 22 20 21 23 24 23 21 19 20 22 22 22 21 18 15 13 14 17 19 19 19 18 18 18 17 17 18 17 14 14 16 21 26 27 27 28 28 27 25 25 27 30 29 26 24 24 25 26 24 24 29 31 29 28 27 27 26
20 20 22 24 26 26 24 22 22 22 24 24 22 20 20 22 23 22 22 21 18 14 13 15 18 20 20 19 19 19 18 18 19 19 16 12 11 17 25 28 27 27 28 28 26 25 25 25 24 24 25 25 24 24 23 24 29 32 31 30 30 28 27
21 21 22 23 25 27 26 24 23 23 23 24 23 20 20 22 23 23 22 21 20 18 14 13 16 20 22 21 19 19 20 20 20 19 17 13 11 13 23 32 32 30 29 28 27 26 25 23 21 22 25 28 28 27 26 28 32 33 31 30 29 27 26
24 25 25 25 26 27 27 26 25 24 24 24 23 21 20 22 23 24 23 22 21 20 18 15 14 16 20 21 20 18 19 21 22 20 18 15 12 12 20 30 36 36 35 34 31 28 27 26 25 24 24 24 26 30 33 35 34 32 29 28 28 26 25
26 27 28 27 27 28 28 27 27 26 25 24 23 21 21 22 24 25 24 23 22 21 20 19 17 15 15 18 20 20 20 22 23 23 21 18 15 14 18 26 33 37 39 39 38 35 32 32 33 31 27 24 24 28 35 38 35 31 30 30 29 28 27
25 27 28 28 27 27 26 26 26 28 27 24 22 21 21 22 24 25 25 24 23 21 20 20 19 17 14 16 18 20 22 23 24 25 24 21 17 17 20 25 30 34 37 39 40 39 38 38 40 39 37 36 34 33 36 37 35 33 33 31 30 29 27
25 26 27 28 27 27 26 25 25 27 26 23 21 21 22 23 24 24 25 25 23 22 21 20 20 19 16 15 17 19 21 24 25 26 25 23 20 19 21 26 29 31 34 37 39 39 39 40 42 42 42 42 42 40 39 38 36 35 34 32 30 28 26
Wind_Direction
223 226 216 213 221 224 221 221 221 221 223 225 225 225 226 227 230 232 232 233 232 231 231 230 228 225 225 228 229 228 227 227 227 228 230 230 230 229 226 225 224 224 225 225 223 221 222 223 223 224 226 229 228 221 218 218 218 219 220 222 226 226 220
6 323 256 223 217 221 228 228 225 223 224 226 226 225 225 227 230 232 232 234 234 233 232 231 230 227 226 227 229 229 227 225 226 227 228 229 230 231 230 229 229 228 228 228 226 225 226 226 226 227 229 231 231 225 221 222 220 219 221 223 225 228 224
8 5 344 293 228 223 229 229 227 225 224 225 227 226 227 229 231 232 233 234 234 234 233 232 231 229 227 227 228 228 227 225 225 225 226 227 227 229 231 230 230 230 230 228 227 226 227 227 228 230 231 230 230 227 224 224 224 221 222 225 228 232 231
8 10 0 331 261 236 234 230 228 226 223 224 228 229 231 232 232 233 234 235 234 234 234 232 231 230 229 229 228 228 228 227 226 225 226 226 226 227 230 231 231 230 228 227 226 226 227 228 228 229 231 228 227 228 227 226 228 227 227 228 230 233 235
10 15 13 358 307 260 244 234 230 226 223 224 227 231 234 234 234 233 233 235 235 235 235 233 232 231 230 230 229 229 229 228 227 226 226 226 225 226 227 229 231 230 229 228 227 226 226 227 226 226 228 227 225 226 228 228 230 232 234 234 234 234 236
12 16 17 14 355 301 266 244 234 229 229 229 229 232 234 233 234 234 233 234 234 235 235 234 233 232 231 230 230 231 231 230 229 228 227 226 225 225 227 228 231 231 231 230 229 228 226 225 224 224 225 226 225 224 226 228 231 234 237 238 239 239 239
18 20 21 24 23 9 310 255 234 229 234 235 232 233 233 232 233 234 234 235 235 234 235 234 234 234 233 232 231 231 231 231 231 230 229 228 227 226 227 229 231 233 233 233 232 230 228 225 223 224 225 226 226 224 225 226 229 233 236 238 240 241 244
26 29 28 30 33 37 45 167 211 221 236 241 237 234 231 229 232 233 234 235 235 235 235 235 235 235 234 234 233 233 233 232 233 232 231 230 229 229 228 229 231 233 234 235 235 233 231 229 226 224 225 225 226 225 225 227 228 230 235 237 240 241 244
30 37 38 38 39 42 51 77 149 188 221 239 240 236 232 228 230 233 234 236 235 235 237 237 237 237 237 236 236 236 235 234 234 234 233 233 232 232 230 230 230 231 233 235 237 238 236 234 232 228 225 225 226 226 227 229 229 230 234 238 242 244 244
27 39 42 42 43 44 47 58 97 156 189 216 226 230 230 230 232 234 234 235 236 237 239 238 238 239 239 238 238 237 237 236 236 236 235 235 235 234 233 232 231 231 232 234 236 239 239 238 237 233 228 226 226 227 229 230 230 232 236 239 243 247 248
24 37 42 42 42 43 44 47 55 67 73 95 186 206 215 225 232 234 234 235 236 237 239 239 239 240 240 239 238 238 238 238 238 238 238 237 237 237 236 236 234 232 231 232 235 238 239 239 238 236 232 228 226 227 228 230 232 235 238 241 244 247 250
22 33 41 42 40 41 42 43 44 46 47 46 53 164 196 208 221 229 233 236 235 235 239 241 241 242 242 241 239 239 240 240 239 240 240 240 239 239 238 238 238 236 232 231 233 235 237 239 238 237 234 232 230 229 229 231 234 236 239 243 245 247 249
22 30 39 43 41 39 39 40 40 41 42 41 40 41 131 193 203 211 223 232 234 234 238 242 242 244 245 243 241 242 242 242 242 242 242 242 241 241 240 240 239 239 237 235 234 234 236 237 238 238 237 236 234 233 232 233 235 237 241 244 247 248 249
24 28 35 41 42 40 37 36 36 37 38 38 38 36 38 107 201 205 211 219 225 230 235 240 242 245 247 245 243 244 245 245 245 245 245 245 245 243 243 242 241 241 240 239 238 236 236 237 238 239 239 239 238 237 236 236 237 239 241 244 247 249 250
23 24 29 35 40 41 39 36 33 33 33 34 34 34 32 30 4 217 214 212 214 220 230 238 242 243 244 245 246 247 248 248 247 247 247 246 247 246 245 244 244 243 243 242 241 240 239 238 239 240 241 241 241 240 240 240 239 239 240 242 245 248 251
23 22 24 29 35 38 39 38 33 30 29 29 28 28 27 24 20 351 236 219 217 214 217 231 242 244 242 244 248 250 251 250 249 248 248 248 248 248 247 246 246 246 246 244 243 243 242 241 240 240 241 242 242 242 242 242 241 240 240 242 244 247 250
22 20 21 25 30 33 36 38 35 30 28 26 25 23 21 20 18 11 344 247 225 219 214 221 236 243 243 244 248 250 251 251 250 250 250 250 250 250 249 248 248 248 248 247 246 245 244 243 242 241 241 242 242 243 243 243 242 242 242 242 243 246 248
20 18 18 21 24 26 30 34 34 32 29 26 24 22 17 15 13 10 2 332 250 230 223 220 226 235 241 244 247 249 249 250 251 252 252 252 252 252 251 250 250 249 249 248 247 247 245 244 243 243 242 243 243 243 243 243 242 242 243 243 243 245 247
16 15 14 17 20 21 22 26 28 30 30 29 26 23 18 14 10 7 4 356 326 262 239 229 226 229 236 241 244 247 249 250 251 253 254 254 254 254 253 252 251 251 251 250 249 249 248 247 246 246 245 244 244 244 244 244 243 242 242 242 242 243 246
9 10 10 13 17 17 16 17 20 24 27 28 26 23 19 15 11 6 0 358 352 315 265 246 237 233 235 239 241 244 247 250 252 254 255 256 256 255 254 254 254 253 252 252 252 251 250 249 249 249 247 246 246 246 246 246 244 242 241 241 241 242 244
1 1 3 7 11 11 11 10 11 14 18 20 20 20 19 16 13 9 1 355 354 343 303 270 252 242 238 238 240 244 248 250 253 255 256 256 256 256 255 254 255 254 253 253 253 253 252 252 252 252 250 249 249 249 248 246 245 244 242 241 241 241 243
354 352 353 357 1 4 5 5 4 5 8 11 12 15 17 15 12 9 5 359 353 349 336 309 270 247 238 234 235 240 247 252 254 255 257 257 255 255 255 255 255 255 254 254 254 254 254 252 252 252 251 250 250 250 248 246 245 244 243 242 241 242 243
352 347 344 346 351 355 358 0 0 0 359 360 3 7 11 13 11 7 6 3 357 351 343 333 311 261 237 231 230 231 236 245 251 253 254 254 254 254 254 255 255 255 255 254 254 254 254 253 253 252 252 251 250 250 249 247 245 244 243 242 242 242 243
350 348 343 341 343 346 350 353 356 358 355 351 354 1 5 10 11 6 3 4 3 358 349 336 324 306 258 232 230 232 232 234 242 249 251 251 252 254 254 254 255 254 255 255 255 255 257 257 256 255 253 251 251 250 250 250 248 247 245 244 243 243 244
337 339 339 340 339 338 341 345 348 353 353 348 349 355 0 7 11 8 3 3 5 2 356 345 330 321 307 263 236 232 234 235 237 243 249 251 251 252 252 253 254 253 254 255 256 257 258 258 257 256 254 254 253 253 253 253 252 251 249 247 245 245 245
324 325 327 330 331 331 333 337 340 345 348 347 344 346 352 360 6 5 1 1 2 2 1 356 342 326 317 302 270 239 232 235 238 240 246 250 252 252 252 251 251 251 253 253 254 255 255 256 257 257 257 257 257 257 256 255 254 253 252 249 247 246 244
311 312 314 316 316 320 325 328 331 335 340 343 341 339 342 347 352 357 359 357 357 359 360 359 351 336 319 308 298 269 237 230 233 236 241 247 250 251 250 249 248 247 248 249 250 250 250 251 253 255 256 257 258 259 258 257 256 255 253 251 248 246 245
304 302 303 304 304 309 315 318 321 325 331 338 338 335 335 335 338 346 351 349 349 351 352 353 353 347 333 315 306 295 268 239 229 228 232 240 247 249 248 247 246 244 244 245 246 247 247 247 249 252 254 255 256 257 257 257 257 256 255 252 250 247 245
304 301 301 302 303 304 304 307 311 315 320 329 333 332 330 330 331 335 339 339 339 341 344 345 345 347 342 327 314 308 297 275 250 234 228 230 239 244 244 244 243 241 242 243 244 245 246 246 247 250 252 253 254 255 256 254 253 254 254 254 252 249 247
307 303 301 300 299 298 295 295 300 304 308 316 324 326 326 326 326 327 329 332 330 327 332 338 339 338 339 331 317 312 307 296 281 260 243 240 240 235 234 239 242 239 238 240 240 241 244 245 246 247 248 248 249 251 252 252 250 248 249 251 252 251 250
310 307 304 300 298 297 293 288 289 293 298 304 312 318 321 322 322 322 322 324 323 318 320 329 332 331 332 330 319 310 307 302 298 291 274 266 260 240 227 234 241 239 238 239 239 240 243 244 244 243 244 244 244 245 247 248 249 248 247 247 249 250 252
307 309 308 302 299 298 293 283 279 282 288 294 301 309 315 317 318 318 316 317 318 315 313 316 321 324 327 327 321 313 307 302 300 302 300 289 273 249 235 239 246 245 242 242 242 241 243 244 243 242 241 240 241 244 245 245 247 249 248 248 248 248 249
304 306 307 305 302 301 294 281 273 274 279 285 292 301 306 311 315 314 312 313 313 313 309 305 307 314 320 322 322 318 314 308 301 299 301 305 288 257 246 250 256 254 249 246 244 243 243 242 240 240 240 240 240 241 242 244 247 248 247 248 249 247 247
303 302 303 304 305 303 296 282 270 267 271 277 285 294 300 305 310 311 311 311 309 308 309 301 296 302 309 315 319 318 315 313 307 297 292 296 295 266 249 249 253 254 250 246 245 246 246 245 243 241 242 245 246 245 245 249 253 252 250 249 248 246 245
303 302 302 303 305 303 296 283 269 263 265 270 277 287 294 298 303 308 310 312 310 306 304 301 295 294 298 306 315 318 313 310 307 299 288 285 286 274 254 248 248 249 247 243 241 242 242 243 244 246 247 249 249 250 251 255 258 259 259 258 254 251 249
303 302 302 303 303 301 294 283 271 263 262 264 270 280 288 293 298 304 308 310 311 308 303 300 297 294 291 296 307 315 313 309 306 300 291 283 280 278 266 254 249 248 248 245 242 240 240 240 241 242 244 246 247 251 255 258 261 264 265 264 262 261 260
302 301 302 303 302 299 293 285 274 264 261 262 267 274 283 287 291 299 306 309 309 308 304 300 297 296 292 288 293 304 311 312 310 306 299 291 284 282 278 268 257 249 245 246 246 244 244 245 247 247 247 247 250 255 258 260 260 261 262 262 262 263 264
304 302 301 301 298 296 293 287 277 267 262 262 266 270 277 283 286 294 302 307 309 308 304 299 296 296 296 288 282 289 301 308 311 311 309 303 296 289 283 278 272 260 247 242 245 247 248 248 250 251 252 252 253 256 258 258 257 258 259 260 261 263 263